This demonstration page uses our WeatherBlox Daily Observations layout. Learn more.

Left ArrowRight Arrow

Hourly Observations for November 17, 2021

Temp ( °F °C ) Dew Point ( °F °C ) Humidity (%) Winds ( mph kmh ) Pressure ( in mb ) Visibility ( mi km ) Precip ( " mm )
12:53 am 00:53 Clear with Mist and Fog 47 8.3 46 7.8 97 97 Calm 30.22 1023 3 5 0.00 0.00
12:59 am 00:59 Mostly Clear with Mist and Fog 48 8.9 46 7.8 93 93 Calm 30.24 1024 2 3 0.00 0.00
1:03 am 01:03 Mostly Cloudy with Mist and Fog 47 8.3 46 7.8 97 97 Calm 30.25 1024 1 2 0.00 0.00
1:06 am 01:06 Mostly Cloudy with Fog 48 8.9 46 7.8 93 93 Calm 30.23 1024 1 1 0.00 0.00
1:10 am 01:10 Mostly Cloudy with Fog 48 8.9 46 7.8 93 93 Calm 30.24 1024 0 0 0.00 0.00
1:18 am 01:18 Mostly Cloudy with Mist and Fog 47 8.3 46 7.8 97 97 Calm 30.25 1024 1 1 0.00 0.00
1:22 am 01:22 Mostly Cloudy with Mist and Fog 48 8.9 46 7.8 93 93 Calm 30.24 1024 3 4 0.00 0.00
1:29 am 01:29 Mostly Cloudy with Mist and Fog 48 8.9 46 7.8 93 93 Calm 30.24 1024 3 5 0.00 0.00
1:47 am 01:47 Partly Cloudy with Mist and Fog 46 8 46 8 100 100 Calm 30.25 1024 3 4 0.00 0.00
1:53 am 01:53 Partly Cloudy with Mist and Fog 48 8.9 46 7.8 93 93 Calm 30.22 1023 3 5 0.00 0.00
2:15 am 02:15 Clear with Mist and Fog 47 8.3 46 7.8 97 97 Calm 30.25 1024 2 3 0.00 0.00
2:18 am 02:18 Mostly Cloudy with Mist and Fog 46 7.8 46 7.8 100 100 Calm 30.25 1024 1 1 0.00 0.00
2:35 am 02:35 Mostly Cloudy with Mist and Fog 46 7.8 45 7.2 96 96 Calm 30.25 1024 1 2 0.00 0.00
2:38 am 02:38 Partly Cloudy with Mist and Fog 46 7.8 45 7.2 96 96 Calm 30.25 1024 3 4 0.00 0.00
2:40 am 02:40 Mostly Cloudy with Mist and Fog 46 7.8 45 7.2 96 96 Calm 30.25 1024 4 6 0.00 0.00
2:53 am 02:53 Mostly Cloudy with Mist and Fog 47 8.3 45 7.2 93 93 Calm 30.22 1023 4 6 0.00 0.00
3:07 am 03:07 Mostly Cloudy with Mist and Fog 47 8.3 45 7.2 93 93 Calm 30.25 1024 1 2 0.00 0.00
3:24 am 03:24 Mostly Clear with Mist and Fog 46 7.8 45 7.2 96 96 Calm 30.25 1024 2 2 0.00 0.00
3:41 am 03:41 Mostly Clear with Mist and Fog 46 7.8 45 7.2 96 96 Calm 30.25 1024 3 5 0.00 0.00
3:53 am 03:53 Partly Cloudy with Mist and Fog 45 7.2 44 6.7 97 97 Calm 30.22 1023 2 3 0.00 0.00
3:58 am 03:58 Mostly Cloudy with Mist and Fog 45 7.2 44 6.7 97 97 Calm 30.25 1024 1 1 0.00 0.00
4:03 am 04:03 Mostly Cloudy with Fog 44 6.7 43 6.1 96 96 Calm 30.25 1024 0 0 0.00 0.00
4:15 am 04:15 Mostly Cloudy with Mist and Fog 45 7.2 44 6.7 97 97 Calm 30.25 1024 1 1 0.00 0.00
4:19 am 04:19 Cloudy with Mist and Fog 45 7.2 44 6.7 97 97 Calm 30.25 1024 3 5 0.00 0.00
4:29 am 04:29 Mostly Cloudy with Mist and Fog 44 6.7 44 6.7 100 100 Calm 30.25 1024 1 1 0.00 0.00
4:37 am 04:37 Mostly Cloudy with Fog 44 6.7 43 6.1 96 96 Calm 30.25 1024 1 1 0.00 0.00
4:49 am 04:49 Mostly Cloudy with Mist and Fog 45 7 43 6 93 93 Calm 30.26 1025 1 2 0.00 0.00
4:53 am 04:53 Partly Cloudy with Mist and Fog 44 6.7 43 6.1 96 96 Calm 30.23 1024 2 2 0.00 0.00
5:00 am 05:00 Mostly Cloudy with Light Rain 43 6.1 43 6.1 100 100 Calm 30.26 1025 1 2 0.00 0.00
5:04 am 05:04 Mostly Cloudy with Light Rain 44 6.7 43 6.1 96 96 Calm 30.26 1025 1 1 0.00 0.00
5:17 am 05:17 Mostly Cloudy with Mist and Fog 44 6.7 43 6.1 96 96 Calm 30.26 1025 1 1 0.00 0.00
5:20 am 05:20 Mostly Cloudy with Mist and Fog 44 6.7 43 6.1 96 96 Calm 30.26 1025 1 2 0.00 0.00
5:32 am 05:32 Mostly Cloudy with Fog 43 6.1 43 6.1 100 100 Calm 30.26 1025 1 1 0.00 0.00
5:42 am 05:42 Mostly Cloudy with Fog 44 6.7 43 6.1 96 96 Calm 30.26 1025 0 0 0.00 0.00
5:46 am 05:46 Mostly Cloudy with Mist and Fog 43 6.1 43 6.1 100 100 Calm 30.26 1025 1 1 0.00 0.00
5:53 am 05:53 Mostly Cloudy with Mist and Fog 43 6.1 42 5.6 97 97 Calm 30.24 1024 2 3 0.00 0.00
5:55 am 05:55 Partly Cloudy with Mist and Fog 43 6.1 42 5.6 97 97 Calm 30.26 1025 2 3 0.00 0.00
6:02 am 06:02 Partly Cloudy with Mist and Fog 44 6.7 42 5.6 93 93 Calm 30.26 1025 6 10 0.00 0.00
6:53 am 06:53 Partly Cloudy with Mist and Fog 42 5.6 42 5.6 100 100 Calm 30.25 1025 6 10 0.00 0.00
7:53 am 07:53 Sunny with Mist and Fog 44 6.7 44 6.7 100 100 Calm 30.28 1025 6 10 0.00 0.00
8:53 am 08:53 Sunny with Mist and Fog 51 10.6 48 8.9 89 89 Calm 30.29 1026 6 10 0.00 0.00
9:53 am 09:53 Sunny 58 14.4 50 10 75 75 S 3 6 30.30 1026 8 13 0.00 0.00
10:53 am 10:53 Sunny 63 17.2 54 12.2 73 73 SW 5 7 30.30 1026 10 16 0.00 0.00
11:53 am 11:53 Sunny 67 19.4 47 8.3 49 49 VRB 7 11 30.27 1025 10 16 0.00 0.00
12:53 pm 12:53 Sunny 70 21.1 47 8.3 44 44 S 8 13 30.24 1024 10 16 0.00 0.00
1:53 pm 13:53 Sunny 72 22.2 43 6.1 35 35 S 13 20 30.22 1023 10 16 0.00 0.00
2:53 pm 14:53 Sunny 72 22.2 42 5.6 34 34 VRB 3 6 30.20 1023 10 16 0.00 0.00
3:53 pm 15:53 Sunny 72 22.2 44 6.7 37 37 SSW 6 9 30.19 1023 10 16 0.00 0.00
4:53 pm 16:53 Sunny 71 21.7 44 6.7 38 38 S 7 11 30.19 1023 10 16 0.00 0.00
5:53 pm 17:53 Clear 66 18.9 46 7.8 49 49 SE 3 6 30.20 1023 10 16 0.00 0.00
6:53 pm 18:53 Clear 58 14.4 47 8.3 67 67 Calm 30.22 1024 10 16 0.00 0.00
7:53 pm 19:53 Clear 54 12.2 47 8.3 77 77 Calm 30.23 1024 10 16 0.00 0.00
8:53 pm 20:53 Clear 52 11.1 46 7.8 80 80 Calm 30.24 1024 10 16 0.00 0.00
9:53 pm 21:53 Clear 50 10 45 7.2 83 83 Calm 30.25 1024 10 16 0.00 0.00
10:53 pm 22:53 Clear 49 9.4 46 7.8 90 90 Calm 30.25 1025 10 16 0.00 0.00
11:53 pm 23:53 Clear 48 8.9 45 7.2 89 89 Calm 30.24 1024 10 16 0.00 0.00

Powered by AerisWeather